Weather in Smolenskiy

Russia / Novosibirsk Oblast     55°11′54″N   83°21′50″E
temp.,
°C
wind,
m/s
gust,
m/s
humid.,
%
clouds,
%
prec.,
mm/h
press.,
hPa
HPBL,
m
28 february, sun
sun2801:00−29ssw3410071 0.0 103982
04:00−30ssw369988 0.0 103885
07:00−30ssw349875 0.0 103970
10:00−27s479667 0.0 1038189
13:00−20sse369271 0.0 1035338
16:00−17sse369090 0.0 1032483
19:00−17se239494 0.0 102948
22:00−15se4795100 0.2 1026244
1 march, mon
mon101:00−14ese4895100 0.3 1023225
04:00−12se4895100 0.2 1019285
07:00−10se4995100 0.9 1016371
10:00−7se5995100 1.3 1012465
13:00−4se5795100 2.4 1010526
16:00−3ene5797100 4.3 1008329
19:00−4ne5797100 7.6 1007225
22:00−9nne5995100 1.1 1007266
2 march, tue
tue201:00−11nne4795100 1.6 1009272
04:00−13nne379593 0.1 1011238
07:00−16nne239790 0.3 101488
10:00−17ne239691 0.1 1016126
13:00−13w129092 0.2 1018340
16:00−11wsw2387100 0.2 1018493
19:00−13wsw1296100 0.4 101822
22:00−15ese119794 0.1 101820
3 march, wed
wed301:00−15se129791 0.1 101720
04:00−15s1197100 0.1 101620
07:00−15e119697 0.3 101620
10:00−13ne119497 0.1 101699
13:00−10ene118999 0.3 1016362
16:00−8wsw1189100 0.3 1017365
19:00−11wsw3595100 0.8 1019184
22:00−14sw349779 0.1 102168
4 march, thu
thu401:00−16ssw369781 0.1 1023111
04:00−18ssw469996 0.1 1023129
07:00−21s479888 0.1 1025123
10:00−17s599474 0.0 1024261
13:00−11s599186 0.0 1023427
16:00−8s61090100 0.0 1021602
19:00−8s51291100 0.0 1019496
22:00−8s61487100 0.0 1017468